This demonstration page uses our WeatherBlox Daily Observations layout. Learn more.

40.92945, -100.16068

Hourly Observations for June 7, 2018

Temp ( °F °C ) Dew Point ( °F °C ) Humidity (%) Winds ( mph kmh ) Pressure ( in mb ) Visibility ( mi km ) Precip ( " mm )
12:15 am 00:15 Mostly Cloudy 79 25.9 60 15.5 53 53 W 18 30 29.83 1010 10 16.0934 0 0
12:35 am 00:35 Partly Cloudy 76 24.2 56 13.4 51 51 NW 18 30 29.85 1011 10 16.0934 0 0
12:55 am 00:55 Mostly Cloudy 72 22.3 58 14.7 62 62 WNW 14 22 29.88 1012 10 16.0934 0 0
1:15 am 01:15 Cloudy with Nearby Thunderstorms 70 21 59 15 69 69 NW 14 22 29.91 1013 10 16.0934 0.01 0.254
1:35 am 01:35 Cloudy with Heavy Rain 66 19.1 61 15.9 82 82 NW 14 22 29.94 1014 7 11.26538 0.06 1.524
1:55 am 01:55 Mostly Cloudy 66 18.9 61 16.2 84 84 NW 20 31 29.94 1014 10 16.0934 0.06 1.524
2:15 am 02:15 Mostly Cloudy with Light Rain 65 18.3 61 16.3 88 88 NW 18 30 29.91 1013 10 16.0934 0.01 0.254
2:35 am 02:35 Mostly Cloudy with Light Thunderstorms 65 18.4 61 16.1 87 87 WNW 10 17 29.94 1014 10 16.0934 0.01 0.254
2:55 am 02:55 Cloudy with Light Thunderstorms 65 18.5 61 15.9 85 85 WNW 16 26 29.94 1014 10 16.0934 0.02 0.508
3:15 am 03:15 Cloudy with Nearby Thunderstorms 65 18.3 61 16 87 87 W 18 30 29.97 1015 10 16.0934 0.02 0.508
3:35 am 03:35 Cloudy with Rain 65 18.5 59 15 80 80 W 22 35 29.97 1015 10 16.0934 0.08 2.032
3:55 am 03:55 Cloudy with Rain 66 18.8 57 14 74 74 WSW 15 24 29.94 1014 10 16.0934 0.15 3.81
4:15 am 04:15 Mostly Cloudy 68 19.8 56 13.3 66 66 SSE 26 43 29.8 1009 10 16.0934 0.03 0.762
4:35 am 04:35 Partly Cloudy 64 18 59 14.9 82 82 SSE 18 30 29.88 1012 10 16.0934 0.03 0.762
4:55 am 04:55 Clear 64 18 59 15.2 84 84 ESE 16 26 29.85 1011 10 16.0934 0.03 0.762
5:15 am 05:15 Clear 64 18 59 15.2 84 84 SE 16 26 29.85 1011 10 16.0934 0 0
5:35 am 05:35 Clear 65 18.2 59 15.2 83 83 ESE 10 17 29.85 1011 10 16.0934 0 0
5:55 am 05:55 Clear 64 18 60 15.3 84 84 ESE 15 24 29.8 1009 10 16.0934 0 0
6:15 am 06:15 Sunny 65 18.2 59 15.2 83 83 E 9 15 29.8 1009 10 16.0934 0 0
6:35 am 06:35 Sunny 64 17.6 59 15.2 86 86 NNE 10 17 29.85 1011 10 16.0934 0 0
6:55 am 06:55 Sunny 63 17.4 59 15.2 87 87 NNE 5 7 29.88 1012 10 16.0934 0 0
7:15 am 07:15 Sunny 64 17.5 60 15.3 87 87 ENE 7 11 29.91 1013 10 16.0934 0 0
7:35 am 07:35 Sunny 64 18 60 15.6 86 86 ENE 3 6 29.91 1013 10 16.0934 0 0
7:55 am 07:55 Sunny 65 18.2 61 16.1 88 88 NNE 10 17 29.91 1013 10 16.0934 0 0
8:15 am 08:15 Sunny 65 18.6 61 16.2 86 86 NE 8 13 29.91 1013 10 16.0934 0 0
8:35 am 08:35 Sunny 66 19 62 16.5 86 86 ENE 9 15 29.91 1013 10 16.0934 0 0
8:55 am 08:55 Sunny 67 19.6 62 16.8 84 84 ENE 9 15 29.94 1014 10 16.0934 0 0
9:15 am 09:15 Sunny 67 19.7 63 17 85 85 ENE 9 15 29.94 1014 10 16.0934 0 0
9:35 am 09:35 Sunny 69 20.5 63 17.4 82 82 ENE 7 11 29.91 1013 10 16.0934 0 0
9:55 am 09:55 Sunny 69 20.8 63 17 79 79 SE 6 9 29.91 1013 10 16.0934 0 0
10:15 am 10:15 Sunny 71 21.5 63 17 76 76 SSE 6 9 29.91 1013 10 16.0934 0 0
10:35 am 10:35 Sunny 71 21.5 63 17.2 77 77 S 9 15 29.91 1013 10 16.0934 0 0
10:55 am 10:55 Sunny 72 22.2 63 17.3 74 74 S 10 17 29.91 1013 10 16.0934 0 0
11:15 am 11:15 Sunny 72 22.4 63 17 72 72 S 12 19 29.91 1013 10 16.0934 0 0
11:35 am 11:35 Sunny 73 22.6 62 16.9 70 70 SSW 7 11 29.91 1013 10 16.0934 0 0
11:55 am 11:55 Sunny 74 23.1 62 16.6 67 67 S 8 13 29.91 1013 10 16.0934 0 0
12:15 pm 12:15 Sunny 75 23.8 64 17.5 68 68 S 8 13 29.88 1012 10 16.0934 0 0
12:35 pm 12:35 Sunny 75 23.8 64 17.7 69 69 SSW 7 11 29.88 1012 10 16.0934 0 0
12:55 pm 12:55 Sunny 76 24.5 63 17.1 63 63 S 5 7 29.88 1012 10 16.0934 0 0
1:15 pm 13:15 Sunny 77 25 63 17.1 62 62 S 5 7 29.88 1012 10 16.0934 0 0
1:35 pm 13:35 Sunny 78 25.6 64 17.6 61 61 SSE 5 7 29.88 1012 10 16.0934 0 0
1:55 pm 13:55 Sunny 79 26 64 17.7 60 60 SSE 5 7 29.88 1012 10 16.0934 0 0
2:15 pm 14:15 Sunny 80 26.5 64 17.7 59 59 SSE 5 7 29.88 1012 10 16.0934 0 0
2:35 pm 14:35 Sunny 80 26.7 64 17.9 59 59 SE 8 13 29.88 1012 10 16.0934 0 0
2:55 pm 14:55 Sunny 80 26.7 62 16.9 55 55 ESE 5 7 29.83 1010 10 16.0934 0 0
3:15 pm 15:15 Sunny 81 27.1 64 17.6 56 56 ESE 8 13 29.83 1010 10 16.0934 0 0
3:35 pm 15:35 Sunny 81 27.3 65 18.5 59 59 ESE 9 15 29.83 1010 10 16.0934 0 0
3:55 pm 15:55 Sunny 82 27.5 65 18.4 58 58 ESE 9 15 29.83 1010 10 16.0934 0 0
4:15 pm 16:15 Sunny 82 27.5 65 18.6 58 58 SE 10 17 29.83 1010 10 16.0934 0 0
4:35 pm 16:35 Sunny 82 27.5 65 18.4 58 58 ESE 8 13 29.83 1010 10 16.0934 0 0
4:55 pm 16:55 Sunny 82 27.6 65 18.2 57 57 SE 9 15 29.83 1010 10 16.0934 0 0
5:15 pm 17:15 Sunny 82 27.7 65 18.6 58 58 SE 10 17 29.83 1010 10 16.0934 0 0
5:35 pm 17:35 Sunny 82 27.7 65 18.5 57 57 SSE 12 19 29.83 1010 10 16.0934 0 0
5:55 pm 17:55 Sunny 82 28 64 18 55 55 SSE 10 17 29.8 1009 10 16.0934 0 0
6:15 pm 18:15 Sunny 82 28 65 18.1 55 55 SSE 8 13 29.8 1009 10 16.0934 0 0
6:35 pm 18:35 Sunny 81 27.4 65 18.3 58 58 SE 12 19 29.8 1009 10 16.0934 0 0
6:55 pm 18:55 Sunny 81 27.2 64 17.9 57 57 SE 9 15 29.8 1009 10 16.0934 0 0
7:15 pm 19:15 Sunny 81 27.1 64 17.7 56 56 SSE 8 13 29.8 1009 10 16.0934 0 0
7:35 pm 19:35 Sunny 81 27 65 18.2 59 59 SE 9 15 29.8 1009 10 16.0934 0 0
7:55 pm 19:55 Sunny 80 26.5 64 17.9 59 59 SSE 10 17 29.8 1009 10 16.0934 0 0
8:15 pm 20:15 Sunny 79 26 65 18.2 62 62 SE 10 17 29.83 1010 10 16.0934 0 0
8:35 pm 20:35 Sunny 78 25.6 65 18.4 65 65 SE 10 17 29.83 1010 10 16.0934 0 0
8:55 pm 20:55 Sunny 77 25 65 18.5 67 67 SE 9 15 29.83 1010 10 16.0934 0 0
9:15 pm 21:15 Clear 76 24.5 65 18.5 69 69 SE 9 15 29.83 1010 10 16.0934 0 0
9:35 pm 21:35 Clear 75 23.7 65 18.6 73 73 SE 10 17 29.83 1010 10 16.0934 0 0
9:55 pm 21:55 Clear 74 23.5 65 18.5 74 74 SE 9 15 29.85 1011 10 16.0934 0 0
10:15 pm 22:15 Clear 74 23.5 65 18.3 73 73 SE 10 17 29.85 1011 10 16.0934 0 0
10:35 pm 22:35 Clear 74 23.3 65 18.3 74 74 SE 10 17 29.91 1013 10 16.0934 0 0
10:55 pm 22:55 Clear 73 23 65 18.1 74 74 SE 9 15 29.91 1013 10 16.0934 0 0
11:15 pm 23:15 Clear 73 22.8 64 18 74 74 SE 9 15 29.94 1014 10 16.0934 0 0
11:35 pm 23:35 Clear 73 22.5 64 18 76 76 SE 8 13 29.94 1014 10 16.0934 0 0
11:55 pm 23:55 Clear 72 22 64 18 78 78 ESE 7 11 29.94 1014 10 16.0934 0 0

Powered by AerisWeather